{"data":{"norad_id":57109,"epoch":"2026-05-24T21:44:52.965312Z","epoch_age_seconds":93677,"freshness":"FRESH","line1":"1 57109U 23090J   26144.90616858  .00000500  00000+0  27705-4 0  9995","line2":"2 57109  43.0030 211.5561 0002068 282.9123  77.1497 15.27576943161987","mean_motion":15.27576943,"eccentricity":0.0002068,"inclination_deg":43.003,"raan_deg":211.5561,"arg_perigee_deg":282.9123,"mean_anomaly_deg":77.1497,"bstar":2.7705e-5,"rev_number":16198,"period_min":94.266937361073,"perigee_km":481.63935463501,"apogee_km":484.47714499033,"semimajor_km":6861.1952498127,"source":"CELESTRAK","updated_at":"2026-05-25T13:38:18.240831Z"}}